Regional Weather Roundup
Issued by NWS

Home | Current Version | Previous Version | Graphics & Text | Print | Product List | Glossary On
Versions: 1 2 3 4 5 6 7 8 9 10 11 12 13 14 15 16 17 18 19 20 21 22 23 24 25 26 27 28 29 30 31 32 33 34 35 36 37 38 39 40 41 42 43 44 45 46 47 48 49 50
000
ASUS43 KIND 231709
RWRIN

WEATHER ROUNDUP FOR INDIANA
NATIONAL WEATHER SERVICE INDIANAPOLIS IN
100 PM EDT THU MAR 23 2017

NOTE: "FAIR" INDICATES FEW OR NO CLOUDS BELOW 12,000 FEET WITH NO
SIGNIFICANT WEATHER AND/OR OBSTRUCTIONS TO VISIBILITY.

* - STATION DOES NOT REPORT WEATHER SUCH AS PRECIPITATION OR FOG.

+ - STATION NOT QUALITY CONTROLLED BY THE NATIONAL WEATHER SERVICE.
    USE DATA WITH CAUTION...ESPECIALLY DEWPOINT AND RELATIVE
    HUMIDITY OBSERVATIONS.

INZ001>003-010>013-019-020-231800-
NORTHWEST INDIANA

CITY           SKY/WX    TMP DP  RH WIND       PRES   REMARKS
GARY /AIRPORT/ PTSUNNY   41  16  36 S14       30.38F
KNOX *+        CLOUDY    36  -2  20 SE15      30.41F
LA PORTE +     CLOUDY    36  19  50 S10G17    30.41F
MICHIGAN CITY+ CLOUDY    37  19  48 SE7       30.40F
MONTICELLO +   CLOUDY    38  22  52 SE8       30.39F
RENSSELAER +     N/A     41  27  56 SE12      30.39F
VALPARAISO     CLOUDY    40  21  46 SE15      30.38F

$$

LMZ046-743>745-231800-
SOUTHERN LAKE MICHIGAN

STATION/POSITION TIME  TEMP    WIND        PRES    WAVE
                       AIR SEA DIR/SP/G            HT
                 (UTC) (F)     (DEG/KT/KT) (MB)    (FT)
BURNS HARBOR     1630   37     170/ 11/ 18 1029.8S
MICHIGAN CITY    1640   35     150/ 14/ 17   N/A

$$

INZ004-005-014>016-021>024-231800-
NORTH CENTRAL INDIANA

CITY           SKY/WX    TMP DP  RH WIND       PRES   REMARKS
ELKHART        CLOUDY    36  12  38 E12       30.42F
GOSHEN         CLOUDY    36  14  40 SE16      30.41F
LOGANSPORT +   CLOUDY    37  23  56 SE10      30.41F
PERU/GRISSOM   CLOUDY    38  23  54 E14       30.38F
ROCHESTER +    CLOUDY    37  21  52 SE13      30.42F
SOUTH BEND     CLOUDY    36  16  44 SE17      30.42F
WARSAW +       CLOUDY    36  19  51 SE13      30.42F

$$

INZ006>009-017-018-025>027-231800-
NORTHEAST INDIANA

CITY           SKY/WX    TMP DP  RH WIND       PRES   REMARKS
ANGOLA *+      SUNNY     37  19  48 SE9       30.42F
AUBURN +       CLOUDY    37  18  44 SE9       30.44F
FORT WAYNE     PTSUNNY   38  20  48 SE12      30.44F
HUNTINGTON +   CLOUDY    37  20  50 SE8       30.43S
KENDALLVILLE + CLOUDY    38  15  39 SE13      30.42F

$$

INZ028-029-035-036-043>045-051>053-231800-
WEST CENTRAL INDIANA

CITY           SKY/WX    TMP DP  RH WIND       PRES   REMARKS
CRAWFORDSVL +  CLOUDY    44  24  44 SE9G18    30.36F
GREENCASTLE +  MOSUNNY   46  21  36 SE12      30.36F
LAFAYETTE      CLOUDY    45  24  43 SE10      30.38F
TERRE HAUTE    CLOUDY    44  22  41 SE9       30.37F

$$

INZ030>032-037>040-046>048-054>057-064-065-231800-
CENTRAL INDIANA

CITY           SKY/WX    TMP DP  RH WIND       PRES   REMARKS
ANDERSON       CLOUDY    39  21  48 SE10      30.42F
CP ATTERBURY + MOSUNNY   48  21  34 SE6       30.40F
COLUMBUS       SUNNY     46  21  36 SE9       30.40F
FISHERS *+     MOSUNNY   45  28  53 SE9       30.39F
FRANKFORT +    CLOUDY    48  27  45 S12G17    30.39F
GREENWOOD *+   SUNNY     46  24  41 SE12      30.40F
INDIANAPOLIS   MOSUNNY   46  22  38 SE10      30.39F
-EAGLE CREEK   PTSUNNY   45  21  38 SE12      30.38F
KOKOMO +       CLOUDY    39  23  52 SE15      30.41F
MARION +       CLOUDY    37  22  52 S12       30.43S
MT COMFORT *+  SUNNY     45  23  42 SE13      30.40F
SHELBYVILLE    SUNNY     48  21  34 S9        30.39F
ZIONSVILLE +   PTSUNNY   42  23  47 SE13      30.39F

$$

INZ033-034-041-042-049-050-058-059-231800-
EAST CENTRAL INDIANA

CITY           SKY/WX    TMP DP  RH WIND       PRES   REMARKS
MUNCIE         CLOUDY    41  19  41 SE13      30.41F
RICHMOND +     CLOUDY    41  23  48 SE10      30.42F

$$

INZ060-061-067>069-081>083-085>088-231800-
SOUTHWEST INDIANA

CITY           SKY/WX    TMP DP  RH WIND       PRES   REMARKS
EVANSVILLE     CLOUDY    45  26  47 E3        30.38S
HUNTINGBURG *+ LGT RAIN  45  25  45 MISG      30.38F
WASHINGTON +   CLOUDY    43  23  44 MISG      30.37F

$$

INZ062-063-066-070>080-084-089>092-231800-
SOUTH CENTRAL AND SOUTHEAST INDIANA

CITY           SKY/WX    TMP DP  RH WIND       PRES   REMARKS
BEDFORD +      MOSUNNY   48  18  29 E7        30.38F
BLOOMINGTON    PTSUNNY   48  19  31 SE9       30.36F
MADISON *+     SUNNY     46  18  31 E8        30.41F
NORTH VERNON + SUNNY     46  16  29 SE8       30.41F
SEYMOUR +      MOSUNNY   50  25  37 SE6       30.39F

$$





USA.gov is the U.S. government's official web portal to all federal, state and local government web resources and services.